Regional Weather Roundup
Issued by NWS

Home | Current Version | Previous Version | Text Only | Print | Product List | Glossary On
Versions: 1 2 3 4 5 6 7 8 9 10 11 12 13 14 15 16 17 18 19 20 21 22 23 24 25 26 27 28 29 30 31 32 33 34 35 36 37 38 39 40 41 42 43 44 45 46 47 48 49 50
000
ASUS42 KFFC 101503
RWRGA
WEATHER ROUNDUP FOR GEORGIA
NATIONAL WEATHER SERVICE PEACHTREE CITY GA
1100 AM EDT THU JUL 10 2014

NOTE: "FAIR" INDICATES FEW OR NO CLOUDS BELOW 12,000 FEET WITH NO
SIGNIFICANT WEATHER AND/OR OBSTRUCTIONS TO VISIBILITY.

* = USE WITH CAUTION. THE STATIONS MARKED WITH AN ASTERISK MAY NOT
REPORT WEATHER SUCH AS PRECIPITATION, FOG, OR THUNDER AND ARE NOT
QUALITY CONTROLLED BY NWS.

THE REMARK "TC" DENOTES TEMPERATURE READING IN DEGREES CELSIUS.

GAZ001>058-101600-
NORTH GEORGIA

CITY           SKY/WX    TMP DP  RH WIND       PRES   REMARKS
ATLANTA        PTSUNNY   83  69  62 W6        30.11R
ATHENS         MOSUNNY   82  71  69 CALM      30.10S
CHAMBLEE       MOSUNNY   83  67  58 NW5       30.11R
PEACHTREE CITY SUNNY     81  70  69 CALM      30.11S
ROME           PTSUNNY   82  71  69 W3        30.09S
WEST ATLANTA   MOSUNNY   82  70  66 CALM      30.10R
GAINESVILLE    MOSUNNY   80  69  69 NW5       30.14R
CARTERSVILLE   CLOUDY    79  69  71 CALM      30.11R


CITY           SKY/WX    TMP DP  RH WIND       PRES   REMARKS
DALTON*        MOSUNNY   77  70  78 CALM      30.10S
LAWRENCEVILLE* MOSUNNY   81  64  57 W7        30.11R
KENNESAW*      PTSUNNY   81  68  65 NW7       30.13R
$$

GAZ059>098-102>109-101600-
CENTRAL GEORGIA

CITY           SKY/WX    TMP DP  RH WIND       PRES   REMARKS
AUGUSTA-BUSH   PTSUNNY   81  69  67 SW3       30.09R
AUGUSTA-DANIEL PTSUNNY   82  69  64 S3        30.10S
COLUMBUS       CLOUDY    76  71  85 CALM      30.10S
MACON          NOT AVBL
ROBINS AFB     MOSUNNY   81  72  74 VRB3      30.10S


CITY           SKY/WX    TMP DP  RH WIND       PRES   REMARKS
LAGRANGE*      CLOUDY    80  76  87 CALM      30.12R
SYLVANIA*      MOSUNNY   84  73  68 SW5       30.12S HX  90
MILLEDGEVILLE* MOSUNNY   75  68  78 CALM      30.10S
$$

GAZ099>101-110>166-101600-
SOUTH GEORGIA

CITY           SKY/WX    TMP DP  RH WIND       PRES   REMARKS
SAVANNAH       MOSUNNY   84  72  67 S5        30.11S
VALDOSTA       PTSUNNY   89  72  56 VRB3      30.13R HX  96
ALMA           MOSUNNY   85  70  60 VRB5      30.12R
ST SIMONS      MOSUNNY   84  73  69 S7        30.12R HX  90
FT STEWART     MOSUNNY   85  70  61 SW5       30.10S HX  90
ALBANY         SUNNY     85  71  63 VRB6      30.13R HX  90
HUNTER AFB     MOSUNNY   85  72  64 SW8       30.10R HX  91
MOODY AFB      PTSUNNY   85  73  65 W6        30.13S HX  91
BRUNSWICK      MOSUNNY   88  72  58 CALM      30.12S HX  94


CITY           SKY/WX    TMP DP  RH WIND       PRES   REMARKS
BAINBRIDGE*    SUNNY     88  72  58 W5        30.11S HX  94
MOULTRIE*      MOSUNNY   82  73  74 W5        30.13R
VIDALIA*         N/A     82  70  65 W3        30.12S
WAYCROSS*      PTSUNNY   87  76  68 W3        30.12S HX  97
DOUGLAS*       PTSUNNY   86  70  58 W7        30.13S HX  90
$$



USA.gov is the U.S. government's official web portal to all federal, state and local government web resources and services.